Torna al catalogo

COSMOS 2257

AttivoMilitarePO
NORAD 22692·PAYLOAD·🇷🇺 Russia

Lanciato Jun 24, 1993 da Plesetsk Cosmodrome

Loading…

Prossimi Passaggi (prossime 24 ore)

TLE

AggiornatoSource: Space-Track

Epoca: Sep 14, 2026, 04:13 UTC

1 22692U 93038F   26257.17624015  .00000028  00000-0  99197-4 0  9991
2 22692  82.5824 181.8552 0008613 143.1493 217.0191 12.62261080531014

Traccia COSMOS 2257 in tempo reale con AllMySat

Download on the App Store